[[{"header":{"parameterUnit":"m.s-1","parameterCategory":1,"la1":30.2991,"la2":30.254,"lo1":-89.0895,"lo2":-89.0444,"dy":0.0017,"dx":0.0017,"nx":28,"ny":28,"refTime":"2025-06-22T09:00:00:Z","depth":0,"parameterNumber":2,"parameterNumberName":"U-component_of_WINDS"},"data":[0,0,0,0,0,0,0,0,0,0,0,0,0,0,0,0,0,0,0,0,0,0,0,0,0,0,0,0,0,0,0,0,0,0,0,0,0,0,0,0,0,0,0,0,0,0,0,0,0,0,0,0,0,0,0,0,0,0,-0.7723,-0.7723,0,-0.7757,-0.7758,-0.7758,-0.7737,-0.7736,-0.7735,-0.7734,-0.7771,-0.7773,-0.7775,0,0,0,0,0,0,0,0,0,0,0,0,0,-0.764,-0.7641,-0.7722,-0.7723,-0.7723,-0.7757,-0.7758,-0.7758,-0.7737,-0.7736,-0.7734,-0.7733,-0.7771,-0.7773,-0.7775,0,0,0,0,0,0,0,0,0,0,0,0,0,-0.7675,-0.7642,-0.7722,-0.7717,-0.7717,-0.7757,-0.7758,-0.7758,-0.7737,-0.7736,-0.7734,-0.7733,-0.777,-0.7773,-0.7776,-0.7824,0,0,-0.7785,-0.7786,0,0,0,0,0,0,0,0,-0.7673,-0.7678,-0.7717,-0.7717,-0.7717,-0.7741,-0.7742,-0.778,-0.7738,-0.7729,-0.7734,-0.7732,-0.7763,-0.7766,-0.7776,-0.7826,-0.7828,-0.7785,-0.7787,-0.7788,-0.7789,0,0,0,0,0,0,0,-0.7671,-0.7677,-0.7736,-0.7718,-0.7718,-0.7713,-0.7716,-0.7749,-0.7754,-0.773,-0.7729,-0.7733,-0.7762,-0.7773,-0.7777,-0.7828,-0.7785,-0.7788,-0.7789,-0.779,-0.7919,-0.7921,0,0,0,0,0,0,-0.7668,-0.7675,-0.7735,-0.7737,-0.7691,-0.7716,-0.772,-0.7735,-0.7754,-0.7755,-0.7734,-0.7732,-0.7769,-0.7773,-0.7778,-0.7836,-0.7788,-0.7791,-0.7792,-0.7918,-0.792,-0.7922,0,0,0,0,0,0,-0.7667,-0.7674,-0.7734,-0.7706,-0.7713,-0.7719,-0.7736,-0.7736,-0.7747,-0.7757,-0.7758,-0.7744,-0.7768,-0.7774,-0.7813,-0.7837,-0.7792,-0.7795,-0.7916,-0.7918,-0.7921,-0.7952,0,0,0,0,0,0,-0.7664,-0.7674,-0.7692,-0.7706,-0.7714,-0.7768,-0.7738,-0.7738,-0.7752,-0.7749,-0.7767,-0.7768,-0.7767,-0.7808,-0.7816,-0.784,-0.7797,-0.7914,-0.7917,-0.792,-0.7949,-0.7956,-0.7961,0,0,0,0,0,-0.7662,-0.77,-0.7693,-0.77,-0.7737,-0.7769,-0.7774,-0.7771,-0.7754,-0.7773,-0.7779,-0.7767,-0.7833,-0.7813,-0.7821,-0.7846,-0.7912,-0.7916,-0.792,-0.7947,-0.7954,-0.7961,0,0,0,0,0,0,-0.7689,-0.7702,-0.7694,-0.7738,-0.7752,-0.7765,-0.7789,-0.778,-0.78,-0.7797,-0.7794,-0.7798,-0.7838,-0.7846,-0.7823,-0.7894,-0.787,-0.7875,-0.7888,-0.7895,-0.7901,-0.7899,-0.7799,0,0,0,0,0,-0.77,-0.7724,-0.7734,-0.7772,-0.778,-0.7783,-0.7797,-0.7793,-0.7809,-0.7815,-0.7824,-0.784,-0.7864,-0.788,-0.7903,-0.795,-0.7954,-0.7972,-0.7978,-0.7982,-0.7988,-0.8013,-0.8021,-0.7934,-0.7934,-0.7934,0,0,-0.7724,-0.7733,-0.7749,-0.7778,-0.7789,-0.7814,-0.7788,-0.7817,-0.7836,-0.782,-0.7857,-0.7864,-0.7881,-0.7924,-0.7944,-0.7932,-0.8012,-0.7987,-0.7991,-0.7994,-0.8018,-0.8026,-0.8034,-0.7937,-0.7936,-0.7936,0,0,-0.778,-0.7789,-0.7822,-0.7833,-0.7849,-0.7851,-0.7859,-0.7873,-0.7876,-0.7913,-0.7902,-0.7924,-0.7966,-0.7979,-0.7991,-0.805,-0.8041,-0.8058,-0.809,-0.8115,-0.8121,-0.8128,-0.8149,-0.8157,-0.8063,-0.8063,-0.8063,0,-0.7807,-0.7844,-0.784,-0.7869,-0.7882,-0.7867,-0.79,-0.7911,-0.7935,-0.7944,-0.793,-0.7982,-0.7993,-0.8039,-0.8053,-0.8063,-0.8072,-0.8056,-0.8121,-0.8127,-0.8132,-0.8153,-0.8161,-0.8065,-0.8065,-0.8064,-0.8064,0,-0.7877,-0.7903,-0.7928,-0.795,-0.7965,-0.7996,-0.7997,-0.8013,-0.8008,-0.8012,-0.805,-0.8062,-0.8086,-0.8097,-0.8093,-0.8142,-0.8135,-0.8121,-0.8097,-0.8143,-0.8162,-0.817,-0.8068,-0.8067,-0.8066,-0.8066,0,0,-0.7953,-0.7971,-0.798,-0.7989,-0.8006,-0.8026,-0.8056,-0.808,-0.8094,-0.811,-0.8136,-0.8171,-0.8158,-0.8172,-0.8169,-0.8191,-0.8237,-0.8174,-0.8175,-0.8186,-0.8293,-0.8304,-0.8313,-0.8231,-0.8232,-0.8233,-0.8292,0,-0.801,-0.8062,-0.8058,-0.8107,-0.8132,-0.8118,-0.8144,-0.8157,-0.8161,-0.8182,-0.8187,-0.8212,-0.8192,-0.82,-0.8221,-0.8227,-0.8259,-0.8223,-0.8255,-0.8257,-0.8252,-0.8323,-0.8335,-0.8389,-0.8299,-0.83,-0.8301,0,-0.8084,-0.8101,-0.8153,-0.8165,-0.8175,-0.8199,-0.822,-0.824,-0.8255,-0.8256,-0.8271,-0.8264,-0.8295,-0.8269,-0.8312,-0.8288,-0.8301,-0.8305,-0.8307,-0.8311,-0.8282,-0.8329,-0.8406,-0.8415,-0.8313,-0.8312,-0.8311,0,-0.8134,-0.8171,-0.8206,-0.8215,-0.823,-0.8247,-0.8254,-0.8267,-0.8281,-0.83,-0.8309,-0.8331,-0.8343,-0.8361,-0.836,-0.8341,-0.8404,-0.8378,-0.8406,-0.8406,-0.8421,-0.842,-0.8502,-0.8428,-0.8428,-0.8428,-0.8428,0,-0.8199,-0.8231,-0.8229,-0.8251,-0.8287,-0.8282,-0.8318,-0.8323,-0.8335,-0.8358,-0.8347,-0.8369,-0.8367,-0.8389,-0.8389,-0.8425,-0.843,-0.8432,-0.8432,-0.8434,-0.8434,-0.8443,-0.8439,-0.843,-0.8429,-0.8429,-0.8429,0,-0.8261,-0.8261,-0.8299,-0.831,-0.8313,-0.8339,-0.8349,-0.837,-0.8372,-0.8401,-0.8408,-0.8412,-0.8438,-0.8438,-0.8468,-0.8468,-0.8512,-0.8507,-0.8507,-0.8506,-0.8534,-0.8532,-0.8626,-0.8638,-0.8555,-0.8556,-0.8557,0,-0.8303,-0.8327,-0.834,-0.8354,-0.8362,-0.8386,-0.84,-0.8396,-0.8411,-0.8429,-0.8448,-0.8472,-0.8492,-0.8533,-0.8539,-0.8562,-0.8558,-0.8589,-0.8562,-0.8562,-0.8559,-0.8558,-0.8561,-0.8595,-0.8596,-0.8597,-0.8597,0,-0.8377,-0.8376,-0.8396,-0.8416,-0.8433,-0.8449,-0.8463,-0.8476,-0.8474,-0.8491,-0.8517,-0.8532,-0.8561,-0.8586,-0.8608,-0.8616,-0.8607,-0.8606,-0.8614,-0.8616,-0.8615,-0.8617,-0.8522,-0.8604,-0.8603,-0.8603,-0.8603,-0.8602,-0.8431,-0.8452,-0.8464,-0.8487,-0.8497,-0.8511,-0.8531,-0.8535,-0.8556,-0.858,-0.8576,-0.8605,-0.8618,-0.8646,-0.8656,-0.8679,-0.8668,-0.868,-0.8683,-0.8686,-0.8689,-0.8611,-0.8683,-0.8683,-0.8682,-0.8682,-0.8682,0,-0.8505,-0.8512,-0.8533,-0.8553,-0.8571,-0.8559,-0.8575,-0.8591,-0.8616,-0.8629,-0.8648,-0.8677,-0.8701,-0.8708,-0.8731,-0.8748,-0.8744,-0.8754,-0.8753,-0.8755,-0.8697,-0.8688,-0.8756,-0.8756,-0.8756,-0.8756,-0.8756,-0.8756,-0.8546,-0.858,-0.858,-0.862,-0.8626,-0.8653,-0.8663,-0.8676,-0.8686,-0.8719,-0.8739,-0.8743,-0.8754,-0.8777,-0.8798,-0.88,-0.8809,-0.8821,-0.8821,-0.8767,-0.8759,-0.8752,-0.8744,-0.8823,-0.8823,-0.8877,-0.8878,-0.8878]},{"header":{"parameterUnit":"m.s-1","parameterCategory":1,"la1":30.2991,"la2":30.254,"lo1":-89.0895,"lo2":-89.0444,"dy":0.0017,"dx":0.0017,"nx":28,"ny":28,"refTime":"2025-06-22T09:00:00:Z","depth":0,"parameterNumber":3,"parameterNumberName":"V-component_of_WINDS"},"data":[0,0,0,0,0,0,0,0,0,0,0,0,0,0,0,0,0,0,0,0,0,0,0,0,0,0,0,0,0,0,0,0,0,0,0,0,0,0,0,0,0,0,0,0,0,0,0,0,0,0,0,0,0,0,0,0,0,0,-1.0601,-1.0601,0,-1.0599,-1.0599,-1.0599,-1.0617,-1.0617,-1.0618,-1.0618,-1.0616,-1.0616,-1.0615,0,0,0,0,0,0,0,0,0,0,0,0,0,-1.0616,-1.0616,-1.0601,-1.0601,-1.0601,-1.0599,-1.0599,-1.0599,-1.0617,-1.0617,-1.0618,-1.0618,-1.0616,-1.0616,-1.0615,0,0,0,0,0,0,0,0,0,0,0,0,0,-1.0612,-1.0616,-1.0601,-1.0609,-1.061,-1.0599,-1.0599,-1.0599,-1.0617,-1.0617,-1.0618,-1.0619,-1.0616,-1.0616,-1.0615,-1.0596,0,0,-1.0613,-1.0612,0,0,0,0,0,0,0,0,-1.0612,-1.0611,-1.0608,-1.0609,-1.0609,-1.0609,-1.0604,-1.0598,-1.0616,-1.0614,-1.0618,-1.0619,-1.0613,-1.0613,-1.0611,-1.0596,-1.0596,-1.0613,-1.0612,-1.0612,-1.0612,0,0,0,0,0,0,0,-1.0612,-1.0611,-1.06,-1.0608,-1.0609,-1.0613,-1.0613,-1.0603,-1.061,-1.0614,-1.0616,-1.0615,-1.0614,-1.0612,-1.0611,-1.0596,-1.0613,-1.0612,-1.0612,-1.0611,-1.0564,-1.0563,0,0,0,0,0,0,-1.0612,-1.0612,-1.06,-1.06,-1.0613,-1.0612,-1.0612,-1.0608,-1.061,-1.0611,-1.0615,-1.0616,-1.0612,-1.0612,-1.0611,-1.0588,-1.0612,-1.0611,-1.0611,-1.0565,-1.0564,-1.0563,0,0,0,0,0,0,-1.0612,-1.0611,-1.06,-1.0606,-1.0605,-1.0611,-1.0607,-1.0608,-1.0606,-1.061,-1.0611,-1.0611,-1.0613,-1.0612,-1.0599,-1.0588,-1.0611,-1.061,-1.0566,-1.0565,-1.0563,-1.0542,0,0,0,0,0,0,-1.0612,-1.0611,-1.0604,-1.0606,-1.0605,-1.0589,-1.0606,-1.0607,-1.0605,-1.0607,-1.0607,-1.0608,-1.0614,-1.06,-1.0599,-1.0587,-1.061,-1.0567,-1.0565,-1.0564,-1.0544,-1.054,-1.0537,0,0,0,0,0,-1.0613,-1.0598,-1.0603,-1.0602,-1.0596,-1.0588,-1.0588,-1.0595,-1.0604,-1.0597,-1.0599,-1.0608,-1.059,-1.0599,-1.0597,-1.0586,-1.0568,-1.0566,-1.0564,-1.0545,-1.0541,-1.0537,0,0,0,0,0,0,-1.0594,-1.0598,-1.0604,-1.059,-1.0589,-1.0591,-1.0583,-1.059,-1.0586,-1.0588,-1.0596,-1.0596,-1.0582,-1.0583,-1.0593,-1.0567,-1.058,-1.0578,-1.0567,-1.0563,-1.0559,-1.0559,-1.0609,0,0,0,0,0,-1.0588,-1.0582,-1.0586,-1.0572,-1.0571,-1.0577,-1.0574,-1.0579,-1.0578,-1.0578,-1.0579,-1.0578,-1.0572,-1.0567,-1.0562,-1.0544,-1.0544,-1.0535,-1.0532,-1.0529,-1.0527,-1.0517,-1.0512,-1.0557,-1.0557,-1.0557,0,0,-1.0576,-1.0577,-1.0573,-1.0568,-1.0568,-1.0561,-1.0576,-1.0568,-1.0562,-1.0576,-1.0564,-1.0565,-1.0564,-1.0549,-1.0542,-1.0549,-1.0515,-1.0527,-1.0525,-1.0524,-1.0514,-1.051,-1.0506,-1.0556,-1.0556,-1.0556,0,0,-1.055,-1.0551,-1.0539,-1.0538,-1.0538,-1.0542,-1.0539,-1.054,-1.0542,-1.053,-1.054,-1.0533,-1.0523,-1.0521,-1.0519,-1.0491,-1.0499,-1.0489,-1.0472,-1.0462,-1.0458,-1.0455,-1.0444,-1.044,-1.0487,-1.0487,-1.0487,0,-1.0534,-1.0524,-1.0532,-1.0523,-1.052,-1.0533,-1.052,-1.0519,-1.0517,-1.0515,-1.0522,-1.0509,-1.0509,-1.0493,-1.0486,-1.0484,-1.048,-1.0489,-1.0458,-1.0455,-1.0452,-1.0442,-1.0438,-1.0486,-1.0486,-1.0486,-1.0486,0,-1.0504,-1.0497,-1.0488,-1.0485,-1.0481,-1.0471,-1.0477,-1.0472,-1.0478,-1.048,-1.0468,-1.0468,-1.0463,-1.0459,-1.0465,-1.0444,-1.0448,-1.0457,-1.047,-1.0447,-1.0437,-1.0433,-1.0484,-1.0484,-1.0485,-1.0485,0,0,-1.0466,-1.0468,-1.0464,-1.0463,-1.0463,-1.0457,-1.0446,-1.0441,-1.0436,-1.0434,-1.0425,-1.0416,-1.0424,-1.0421,-1.0427,-1.0418,-1.0394,-1.0428,-1.0428,-1.042,-1.037,-1.0362,-1.0357,-1.04,-1.0399,-1.0399,-1.0369,0,-1.0439,-1.0422,-1.0429,-1.041,-1.0403,-1.0415,-1.0405,-1.0404,-1.0406,-1.04,-1.0402,-1.0395,-1.0407,-1.0405,-1.0397,-1.0399,-1.0384,-1.0401,-1.039,-1.039,-1.0389,-1.0352,-1.0345,-1.0317,-1.0366,-1.0365,-1.0365,0,-1.0406,-1.0402,-1.0383,-1.0384,-1.0381,-1.0373,-1.0368,-1.0362,-1.0361,-1.0363,-1.036,-1.0367,-1.0356,-1.037,-1.0354,-1.0366,-1.0362,-1.0362,-1.0361,-1.036,-1.0375,-1.0349,-1.0309,-1.0304,-1.0359,-1.0359,-1.036,0,-1.0378,-1.0369,-1.0356,-1.0354,-1.0355,-1.0349,-1.0349,-1.0348,-1.0344,-1.034,-1.0337,-1.0332,-1.0329,-1.0324,-1.0329,-1.0339,-1.0312,-1.0327,-1.0313,-1.0313,-1.0306,-1.0306,-1.0264,-1.0305,-1.0305,-1.0305,-1.0306,0,-1.0348,-1.0335,-1.0343,-1.0335,-1.0321,-1.0329,-1.0315,-1.0316,-1.0316,-1.0307,-1.0317,-1.0309,-1.0317,-1.031,-1.0314,-1.03,-1.0298,-1.0299,-1.03,-1.0298,-1.0297,-1.0294,-1.0296,-1.0304,-1.0305,-1.0305,-1.0305,0,-1.0314,-1.0319,-1.0306,-1.0307,-1.0308,-1.0297,-1.0298,-1.0291,-1.0294,-1.0283,-1.0281,-1.0285,-1.0277,-1.0282,-1.0273,-1.0276,-1.0257,-1.0261,-1.0258,-1.0258,-1.0243,-1.0244,-1.0196,-1.019,-1.0237,-1.0236,-1.0236,0,-1.0294,-1.0284,-1.0285,-1.028,-1.0279,-1.0272,-1.0268,-1.0275,-1.0271,-1.0268,-1.026,-1.0253,-1.0247,-1.0233,-1.0235,-1.0228,-1.0232,-1.0215,-1.0231,-1.0228,-1.023,-1.023,-1.0229,-1.0212,-1.0211,-1.0211,-1.0211,0,-1.0256,-1.0259,-1.0253,-1.0248,-1.0243,-1.0239,-1.0236,-1.0231,-1.0239,-1.0233,-1.0224,-1.022,-1.0211,-1.0203,-1.0197,-1.0197,-1.0204,-1.0206,-1.0202,-1.0199,-1.0196,-1.0196,-1.0248,-1.0207,-1.0207,-1.0207,-1.0208,-1.0208,-1.0228,-1.022,-1.0218,-1.0211,-1.021,-1.0207,-1.0199,-1.0201,-1.0194,-1.0188,-1.0192,-1.0182,-1.018,-1.0173,-1.0171,-1.0163,-1.0169,-1.0164,-1.0163,-1.0161,-1.0158,-1.0199,-1.0162,-1.0162,-1.0162,-1.0162,-1.0162,0,-1.019,-1.019,-1.0183,-1.0178,-1.0172,-1.0181,-1.0178,-1.0172,-1.0163,-1.0161,-1.0155,-1.0144,-1.0137,-1.0138,-1.0131,-1.0124,-1.0127,-1.0121,-1.0121,-1.0121,-1.0153,-1.0157,-1.0119,-1.0119,-1.0119,-1.0119,-1.0119,-1.0119,-1.0169,-1.0156,-1.0158,-1.0144,-1.0144,-1.0134,-1.0131,-1.0128,-1.0126,-1.0114,-1.0108,-1.0109,-1.0107,-1.01,-1.0093,-1.0094,-1.009,-1.0083,-1.0084,-1.0115,-1.0119,-1.0123,-1.0126,-1.0082,-1.0082,-1.0053,-1.0052,-1.0052]}]]